SCP
0 0 0 0 -0 -0 -0 -0 0 0 0 -0 0 -0 0 -0 -0 -0 0 0 0 -0 -0 0 -0 -0 -0 0 0 0 0 -0 -0 -0 -0 -0 -0 -0 -0 -0 0 0 0
0 1 1 0 0 -0 -0 -0 0 0 0 0 -0 -0 0 -0 -0 -0 0 0 0 0 0 -0 -0 -0 -0 -0 -0 -0 -0 -0 -0 -0 -0 -0 -0 -0 -0 -0 0 0 0
0 0 0 0 0 0 -0 -0 -0 0 0 0 0 0 0 0 0 0 0 0 0 0 0 0 0 -0 -0 -0 -0 -0 -0 -0 0 0 0 0 0 0 0 0 0 0 0
0 0 0 0 0 0 0 0 0 0 1 0 0 0 0 0 0 0 0 0 0 0 0 0 0 0 0 0 0 -0 -0 -0 -0 -0 -0 0 -0 0 0 0 0 0 -0
0 0 0 0 0 0 0 1 0 0 1 1 0 0 0 0 0 0 0 0 -0 -0 -0 0 0 0 -0 0 0 0 0 0 0 0 0 -0 -0 -0 -0 -0 -0 -0 -0
0 0 0 0 0 0 0 0 0 0 0 1 1 1 0 0 0 0 0 0 0 0 -0 -0 -0 -0 0 0 0 0 0 1 1 0 0 0 0 0 0 -0 -0 -0 -0
0 0 0 0 0 0 0 0 0 0 0 0 0 1 1 1 0 0 0 0 0 1 0 0 0 -0 -0 0 0 0 0 0 0 0 0 0 0 0 0 -0 0 0 0
0 0 0 0 0 0 0 0 0 0 0 0 0 0 0 1 0 0 0 0 0 0 1 1 1 0 0 0 0 0 0 0 0 0 0 0 0 0 0 0 0 0 0
0 0 0 0 0 0 0 0 0 0 0 0 1 0 0 0 0 0 0 0 0 0 1 1 1 1 1 0 0 0 0 1 1 0 0 0 0 0 0 1 1 0 0
0 0 0 0 0 0 0 0 0 0 0 0 0 0 0 0 0 0 0 0 0 0 0 1 1 1 1 1 1 1 0 0 1 1 1 0 0 0 0 0 0 0 0
0 0 0 0 0 0 0 0 0 0 0 0 0 0 0 0 0 0 0 0 1 1 1 1 0 0 0 0 0 1 1 1 1 1 1 1 1 1 1 0 0 1 0
0 0 0 0 0 0 0 0 0 0 0 0 0 1 0 0 0 0 0 0 0 0 1 1 1 0 0 0 0 0 0 0 0 1 1 1 1 1 1 1 1 0 0
0 0 0 0 0 0 0 0 0 0 0 0 0 0 0 0 0 0 0 0 0 0 0 0 0 0 0 -0 -0 -0 0 0 0 0 0 1 1 1 1 1 0 0 1
0 0 0 0 0 0 0 0 0 0 0 0 0 0 0 0 0 0 0 0 0 0 0 0 0 0 0 0 0 0 0 0 0 0 0 0 0 1 1 1 1 1 0
0 0 0 0 0 0 0 0 0 0 0 0 0 0 0 0 0 0 0 0 0 0 0 0 0 0 0 0 0 0 1 1 0 0 0 0 0 0 1 1 1 1 1
0 0 0 0 0 0 0 0 0 0 0 0 0 0 0 0 0 0 0 0 0 0 0 0 0 0 0 0 0 0 1 1 1 0 0 0 0 1 1 1 1 1 1
0 0 0 0 0 0 0 0 0 0 0 0 0 0 0 0 0 0 0 0 0 0 0 0 0 0 0 0 0 0 1 1 1 1 1 1 1 1 1 1 1 1 1
0 0 0 0 0 0 0 0 0 0 0 0 0 0 0 0 0 0 0 0 0 0 0 0 0 0 0 0 0 0 1 1 1 1 1 1 1 1 0 0 0 0 0
0 -0 0 0 0 0 0 0 0 0 0 0 0 0 0 0 0 0 0 0 0 0 0 0 0 0 0 0 0 0 0 0 1 1 1 1 1 0 0 0 0 0 0
0 0 0 -0 0 0 0 0 0 0 0 0 0 0 0 0 0 0 0 0 0 0 0 0 0 0 0 0 0 0 0 0 0 0 0 0 1 1 0 0 0 0 0
-0 -0 -0 -0 -0 0 0 0 0 0 0 0 0 0 0 0 0 0 0 0 0 0 0 0 0 0 0 0 0 0 0 0 0 0 0 0 0 0 0 0 0 0 0
-0 -0 -0 -0 0 0 0 0 0 0 0 0 0 0 0 0 0 0 0 0 0 0 0 0 0 0 0 0 0 0 0 0 0 0 0 0 0 0 0 0 0 0 0
-0 -0 -0 -0 -0 -0 0 0 0 0 0 0 0 0 0 0 0 0 0 0 0 0 0 0 0 0 0 0 0 0 0 0 0 0 0 0 0 0 0 0 0 0 0
-0 -0 -0 -0 -0 -0 0 0 0 0 0 0 0 0 0 0 0 0 0 0 -0 -0 -0 -0 -0 -0 -0 -0 0 0 0 0 0 0 0 0 0 0 0 0 0 0 0
-0 -0 -0 -0 -0 0 0 0 0 0 0 0 0 0 0 0 0 0 0 0 -0 -0 -0 -0 -0 -0 -0 0 0 0 0 0 0 0 0 0 0 0 0 0 0 0 0
-0 -0 -0 -0 -0 0 0 0 0 0 0 0 0 0 0 0 0 0 0 -0 -0 -0 -0 -0 -0 0 0 0 0 0 0 0 0 0 0 0 0 0 0 0 0 0 0
Wind_Speed_500mb
53 54 53 46 43 42 44 34 37 34 28 26 22 26 27 21 16 19 23 28 21 24 17 29 34 31 27 20 22 21 21 23 28 33 33 34 42 46 47 38 32 31 29
50 52 51 55 50 48 50 44 42 40 39 30 31 22 28 24 23 18 19 28 17 22 23 32 34 31 39 36 33 27 29 27 32 38 40 43 49 39 31 29 27 32 35
36 34 48 48 48 48 50 54 44 49 45 40 40 29 33 34 30 28 21 19 33 23 16 16 31 34 33 32 40 40 43 41 36 36 41 44 28 34 41 41 37 29 25
34 43 29 36 48 47 47 46 53 49 46 42 40 38 40 39 35 36 30 25 29 32 26 22 18 19 19 19 20 26 32 38 41 43 44 45 42 36 23 27 24 29 37
52 35 47 34 27 44 42 42 45 47 45 42 40 41 40 45 44 45 45 38 35 32 33 34 35 34 29 27 32 32 33 33 32 34 36 35 36 43 47 44 46 50 50
29 18 17 28 21 41 30 33 39 47 48 45 44 43 43 44 44 41 40 44 43 41 40 42 44 41 39 36 37 45 44 47 45 45 44 45 45 45 43 44 47 49 52
32 26 20 32 38 39 38 39 38 43 42 45 45 46 45 47 49 45 39 40 43 46 47 45 46 48 49 52 52 49 48 46 42 44 48 49 49 44 43 42 40 47 51
38 32 23 16 20 26 37 29 37 39 44 45 47 49 50 51 50 51 51 55 55 56 56 56 52 51 50 52 50 57 53 52 54 52 51 48 45 37 36 41 49 53 60
30 27 24 20 10 6 12 18 23 30 26 31 40 44 46 52 54 55 53 57 66 64 61 64 65 67 67 62 58 61 65 69 65 64 62 61 57 52 47 50 55 57 70
18 16 13 12 9 6 5 7 14 22 24 30 36 41 46 48 49 52 53 58 58 62 71 74 73 74 72 73 75 78 78 76 73 71 73 74 73 72 66 65 65 67 70
5 4 3 3 3 9 11 13 15 18 18 21 30 32 40 46 53 54 50 52 56 57 62 67 68 69 72 69 64 67 73 68 75 80 81 79 77 72 67 63 62 59 62
16 15 10 7 9 7 11 15 16 13 7 10 14 18 19 27 38 41 43 48 48 53 61 61 59 59 62 56 54 63 74 80 85 83 84 83 77 74 70 68 68 66 63
17 16 17 17 16 19 19 20 21 17 15 15 20 21 20 17 20 24 31 37 44 49 55 62 61 61 66 74 75 75 73 73 74 77 89 88 81 81 81 78 75 74 76
19 16 11 11 12 10 15 25 31 30 25 27 28 33 33 28 26 27 25 30 33 36 47 51 61 66 73 78 82 87 93 99 96 91 87 83 82 84 88 89 89 89 91
25 20 16 15 16 16 14 10 12 25 35 40 39 35 36 40 38 40 41 40 43 45 47 47 54 58 60 67 74 69 70 78 82 82 90 101 103 98 96 92 93 90 87
33 35 33 32 30 30 34 35 25 18 17 24 33 44 46 45 40 37 41 43 44 48 52 50 50 49 54 59 61 60 63 70 71 67 71 71 78 85 83 77 75 78 77
38 36 35 35 37 39 38 39 48 54 49 41 39 41 40 48 44 37 38 43 47 50 54 56 59 57 57 58 55 59 63 60 59 67 66 65 71 78 77 68 60 63 68
32 37 37 44 46 45 48 49 48 54 60 58 42 33 38 39 43 44 47 52 54 52 51 53 52 51 50 52 52 49 55 59 63 63 63 70 74 68 68 74 72 81 88
36 34 40 42 45 49 53 52 53 54 57 61 64 54 43 52 58 51 51 57 58 58 54 53 46 51 52 53 56 56 50 57 61 63 64 69 65 65 68 68 55 78 84
43 46 44 42 45 47 48 52 53 57 63 67 71 63 40 40 46 48 48 64 59 55 59 63 58 57 56 56 55 57 63 65 58 68 66 65 63 63 56 43 44 62 79
42 46 47 50 52 53 54 57 61 58 62 66 77 76 67 60 47 45 39 43 44 53 62 66 73 73 72 67 61 58 62 69 68 65 66 62 59 64 64 56 54 56 60
39 44 50 54 56 58 61 63 64 67 67 69 73 74 82 80 68 52 44 43 53 60 60 62 67 75 76 75 71 63 61 67 70 66 65 63 52 59 55 55 45 42 42
41 47 54 60 60 58 59 59 58 58 65 73 76 74 80 87 87 84 75 76 73 71 68 68 72 78 82 82 77 69 66 65 67 68 67 65 58 55 53 49 47 41 41
41 46 56 64 64 58 58 61 64 65 63 66 69 69 69 70 70 75 90 94 97 95 92 92 91 89 87 85 81 74 66 64 65 69 66 69 66 63 60 55 54 49 43
40 46 52 65 66 61 62 62 62 63 60 59 63 63 67 67 68 77 70 76 95 98 104 105 94 84 81 77 76 73 66 59 60 65 64 67 65 62 64 55 49 48 47
38 47 54 67 67 60 59 58 60 61 58 61 57 55 59 58 62 64 68 77 87 90 84 80 75 70 69 67 65 64 60 56 55 61 55 59 55 59 57 52 51 50 47
Wind_Direction_500mb
208 212 212 209 213 207 207 209 215 216 220 222 227 200 182 198 208 201 193 194 198 217 225 223 229 240 247 232 232 247 253 280 288 285 293 292 296 302 305 305 312 347 348
219 221 221 221 213 213 213 209 213 217 222 221 210 221 192 191 211 228 215 211 216 226 229 229 223 237 250 256 247 246 246 260 280 284 289 298 301 314 315 315 321 320 329
222 227 226 226 217 214 221 218 217 222 227 224 228 233 214 220 208 215 219 238 226 229 225 245 246 250 261 263 254 261 262 268 269 278 285 291 311 316 315 312 309 307 299
219 258 247 225 222 228 218 220 227 225 224 228 228 228 227 231 231 236 230 229 231 237 248 244 260 250 262 273 271 270 272 272 266 268 273 282 287 307 311 311 303 303 303
212 216 238 244 231 228 228 229 229 231 232 227 228 229 231 235 234 240 248 245 235 227 234 243 250 262 275 279 281 285 288 292 274 269 271 271 273 286 297 304 307 306 303
126 137 198 208 219 268 237 238 238 230 234 238 242 237 233 229 234 237 239 244 248 249 248 242 240 248 256 265 266 273 282 286 285 277 278 279 283 288 295 304 307 311 315
94 94 107 175 208 212 220 242 233 234 233 234 236 244 248 246 244 241 235 241 247 252 258 265 259 250 250 257 260 267 274 278 280 280 279 282 288 294 299 299 306 308 307
73 81 96 114 170 226 222 241 249 245 227 231 236 241 244 247 248 251 240 234 242 248 255 259 264 266 263 260 258 265 270 271 268 269 275 283 290 293 294 300 301 300 304
74 66 71 78 112 181 219 249 260 263 252 250 248 247 252 254 253 252 249 243 240 243 247 251 258 262 267 270 269 268 269 275 277 275 278 283 285 286 287 286 285 293 300
72 77 76 67 58 48 15 318 285 277 275 272 268 267 261 262 260 258 257 256 255 252 252 252 255 259 262 264 266 270 272 271 273 275 277 280 283 285 283 279 283 284 290
347 95 74 92 13 355 355 349 334 319 302 294 281 280 276 271 268 269 265 256 260 261 259 261 262 265 267 269 270 271 270 280 279 280 282 283 284 283 281 279 278 278 281
284 290 298 301 299 301 310 321 332 330 317 4 333 323 303 285 262 258 262 260 261 258 259 262 266 266 261 263 264 265 266 269 272 271 273 276 278 280 282 284 287 284 276
309 281 283 297 312 308 314 319 313 317 313 313 323 317 319 318 303 285 272 266 266 261 254 252 255 262 268 267 260 256 259 262 264 269 266 265 270 275 279 281 283 283 284
353 339 324 316 305 302 321 325 329 311 302 292 290 294 297 294 301 304 300 288 283 279 268 264 266 271 272 270 269 264 261 261 265 266 268 271 274 272 274 277 279 282 286
355 353 337 301 291 288 277 323 305 303 303 297 294 290 294 295 302 299 290 287 291 290 288 284 278 280 284 280 281 284 278 270 271 273 272 272 271 273 274 278 280 284 281
339 336 334 329 320 304 292 274 251 277 288 295 292 283 289 291 294 305 298 290 286 286 285 289 294 296 292 292 292 292 289 285 283 281 282 277 274 273 275 277 278 278 278
352 350 345 331 319 315 307 298 291 268 264 281 287 302 301 289 285 283 287 288 288 288 286 285 285 289 291 294 298 291 295 297 290 279 279 282 284 284 281 276 274 276 272
354 351 338 329 324 318 304 299 296 295 294 287 275 285 284 285 279 273 280 278 278 282 286 291 286 287 291 293 296 294 289 289 287 282 273 275 275 274 282 274 272 287 279
346 336 327 322 320 319 316 311 298 292 290 286 281 277 293 289 276 277 282 282 275 272 276 279 281 284 284 288 292 293 287 289 289 286 283 282 285 282 279 272 270 301 279
344 343 340 334 325 320 314 306 302 296 288 285 286 276 291 292 286 281 288 282 271 262 265 274 278 287 290 293 292 292 292 288 284 286 292 287 283 280 281 280 278 259 256
346 346 342 334 327 318 310 303 301 296 288 284 278 276 269 283 294 289 278 265 237 247 261 270 280 287 290 292 292 291 289 289 286 284 283 282 284 280 280 276 274 272 275
352 348 343 337 330 322 314 307 296 290 293 293 289 284 274 267 275 270 271 263 257 260 266 274 278 281 286 290 291 291 290 288 288 283 279 284 273 276 272 267 259 277 268
1 357 354 347 336 326 319 316 311 304 294 286 284 284 279 271 270 269 270 273 272 265 267 278 284 286 287 287 288 287 287 286 285 282 276 269 270 273 271 265 264 275 275
356 359 355 348 340 330 322 318 316 312 302 295 292 290 288 280 277 278 273 272 272 274 276 282 287 287 284 281 281 283 282 282 282 280 278 270 264 264 263 266 271 272 269
354 354 350 348 345 336 328 322 316 312 305 297 292 291 288 287 284 272 270 272 274 279 281 284 285 282 280 281 280 282 283 282 278 279 276 273 265 264 264 268 262 263 261
348 349 345 347 343 335 329 326 321 317 311 304 297 292 291 284 278 274 274 275 274 275 275 276 281 283 282 283 283 283 283 282 279 279 273 274 268 260 259 256 250 246 246
Wind_Speed_850mb
53 54 53 46 43 42 44 34 37 34 28 26 22 26 27 21 16 19 23 28 21 24 17 29 34 31 27 20 22 21 21 23 28 33 33 34 42 46 47 38 32 31 29
50 52 51 55 50 48 50 44 42 40 39 30 31 22 28 24 23 18 19 28 17 22 23 32 34 31 39 36 33 27 29 27 32 38 40 43 49 39 31 29 27 32 35
36 34 48 48 48 48 50 54 44 49 45 40 40 29 33 34 30 28 21 19 33 23 16 16 31 34 33 32 40 40 43 41 36 36 41 44 28 34 41 41 37 29 25
34 43 29 36 48 47 47 46 53 49 46 42 40 38 40 39 35 36 30 25 29 32 26 22 18 19 19 19 20 26 32 38 41 43 44 45 42 36 23 27 24 29 37
52 35 47 34 27 44 42 42 45 47 45 42 40 41 40 45 44 45 45 38 35 32 33 34 35 34 29 27 32 32 33 33 32 34 36 35 36 43 47 44 46 50 50
29 18 17 28 21 41 30 33 39 47 48 45 44 43 43 44 44 41 40 44 43 41 40 42 44 41 39 36 37 45 44 47 45 45 44 45 45 45 43 44 47 49 52
32 26 20 32 38 39 38 39 38 43 42 45 45 46 45 47 49 45 39 40 43 46 47 45 46 48 49 52 52 49 48 46 42 44 48 49 49 44 43 42 40 47 51
38 32 23 16 20 26 37 29 37 39 44 45 47 49 50 51 50 51 51 55 55 56 56 56 52 51 50 52 50 57 53 52 54 52 51 48 45 37 36 41 49 53 60
30 27 24 20 10 6 12 18 23 30 26 31 40 44 46 52 54 55 53 57 66 64 61 64 65 67 67 62 58 61 65 69 65 64 62 61 57 52 47 50 55 57 70
18 16 13 12 9 6 5 7 14 22 24 30 36 41 46 48 49 52 53 58 58 62 71 74 73 74 72 73 75 78 78 76 73 71 73 74 73 72 66 65 65 67 70
5 4 3 3 3 9 11 13 15 18 18 21 30 32 40 46 53 54 50 52 56 57 62 67 68 69 72 69 64 67 73 68 75 80 81 79 77 72 67 63 62 59 62
16 15 10 7 9 7 11 15 16 13 7 10 14 18 19 27 38 41 43 48 48 53 61 61 59 59 62 56 54 63 74 80 85 83 84 83 77 74 70 68 68 66 63
17 16 17 17 16 19 19 20 21 17 15 15 20 21 20 17 20 24 31 37 44 49 55 62 61 61 66 74 75 75 73 73 74 77 89 88 81 81 81 78 75 74 76
19 16 11 11 12 10 15 25 31 30 25 27 28 33 33 28 26 27 25 30 33 36 47 51 61 66 73 78 82 87 93 99 96 91 87 83 82 84 88 89 89 89 91
25 20 16 15 16 16 14 10 12 25 35 40 39 35 36 40 38 40 41 40 43 45 47 47 54 58 60 67 74 69 70 78 82 82 90 101 103 98 96 92 93 90 87
33 35 33 32 30 30 34 35 25 18 17 24 33 44 46 45 40 37 41 43 44 48 52 50 50 49 54 59 61 60 63 70 71 67 71 71 78 85 83 77 75 78 77
38 36 35 35 37 39 38 39 48 54 49 41 39 41 40 48 44 37 38 43 47 50 54 56 59 57 57 58 55 59 63 60 59 67 66 65 71 78 77 68 60 63 68
32 37 37 44 46 45 48 49 48 54 60 58 42 33 38 39 43 44 47 52 54 52 51 53 52 51 50 52 52 49 55 59 63 63 63 70 74 68 68 74 72 81 88
36 34 40 42 45 49 53 52 53 54 57 61 64 54 43 52 58 51 51 57 58 58 54 53 46 51 52 53 56 56 50 57 61 63 64 69 65 65 68 68 55 78 84
43 46 44 42 45 47 48 52 53 57 63 67 71 63 40 40 46 48 48 64 59 55 59 63 58 57 56 56 55 57 63 65 58 68 66 65 63 63 56 43 44 62 79
42 46 47 50 52 53 54 57 61 58 62 66 77 76 67 60 47 45 39 43 44 53 62 66 73 73 72 67 61 58 62 69 68 65 66 62 59 64 64 56 54 56 60
39 44 50 54 56 58 61 63 64 67 67 69 73 74 82 80 68 52 44 43 53 60 60 62 67 75 76 75 71 63 61 67 70 66 65 63 52 59 55 55 45 42 42
41 47 54 60 60 58 59 59 58 58 65 73 76 74 80 87 87 84 75 76 73 71 68 68 72 78 82 82 77 69 66 65 67 68 67 65 58 55 53 49 47 41 41
41 46 56 64 64 58 58 61 64 65 63 66 69 69 69 70 70 75 90 94 97 95 92 92 91 89 87 85 81 74 66 64 65 69 66 69 66 63 60 55 54 49 43
40 46 52 65 66 61 62 62 62 63 60 59 63 63 67 67 68 77 70 76 95 98 104 105 94 84 81 77 76 73 66 59 60 65 64 67 65 62 64 55 49 48 47
38 47 54 67 67 60 59 58 60 61 58 61 57 55 59 58 62 64 68 77 87 90 84 80 75 70 69 67 65 64 60 56 55 61 55 59 55 59 57 52 51 50 47
Wind_Direction_850mb
208 212 212 209 213 207 207 209 215 216 220 222 227 200 182 198 208 201 193 194 198 217 225 223 229 240 247 232 232 247 253 280 288 285 293 292 296 302 305 305 312 347 348
219 221 221 221 213 213 213 209 213 217 222 221 210 221 192 191 211 228 215 211 216 226 229 229 223 237 250 256 247 246 246 260 280 284 289 298 301 314 315 315 321 320 329
222 227 226 226 217 214 221 218 217 222 227 224 228 233 214 220 208 215 219 238 226 229 225 245 246 250 261 263 254 261 262 268 269 278 285 291 311 316 315 312 309 307 299
219 258 247 225 222 228 218 220 227 225 224 228 228 228 227 231 231 236 230 229 231 237 248 244 260 250 262 273 271 270 272 272 266 268 273 282 287 307 311 311 303 303 303
212 216 238 244 231 228 228 229 229 231 232 227 228 229 231 235 234 240 248 245 235 227 234 243 250 262 275 279 281 285 288 292 274 269 271 271 273 286 297 304 307 306 303
126 137 198 208 219 268 237 238 238 230 234 238 242 237 233 229 234 237 239 244 248 249 248 242 240 248 256 265 266 273 282 286 285 277 278 279 283 288 295 304 307 311 315
94 94 107 175 208 212 220 242 233 234 233 234 236 244 248 246 244 241 235 241 247 252 258 265 259 250 250 257 260 267 274 278 280 280 279 282 288 294 299 299 306 308 307
73 81 96 114 170 226 222 241 249 245 227 231 236 241 244 247 248 251 240 234 242 248 255 259 264 266 263 260 258 265 270 271 268 269 275 283 290 293 294 300 301 300 304
74 66 71 78 112 181 219 249 260 263 252 250 248 247 252 254 253 252 249 243 240 243 247 251 258 262 267 270 269 268 269 275 277 275 278 283 285 286 287 286 285 293 300
72 77 76 67 58 48 15 318 285 277 275 272 268 267 261 262 260 258 257 256 255 252 252 252 255 259 262 264 266 270 272 271 273 275 277 280 283 285 283 279 283 284 290
347 95 74 92 13 355 355 349 334 319 302 294 281 280 276 271 268 269 265 256 260 261 259 261 262 265 267 269 270 271 270 280 279 280 282 283 284 283 281 279 278 278 281
284 290 298 301 299 301 310 321 332 330 317 4 333 323 303 285 262 258 262 260 261 258 259 262 266 266 261 263 264 265 266 269 272 271 273 276 278 280 282 284 287 284 276
309 281 283 297 312 308 314 319 313 317 313 313 323 317 319 318 303 285 272 266 266 261 254 252 255 262 268 267 260 256 259 262 264 269 266 265 270 275 279 281 283 283 284
353 339 324 316 305 302 321 325 329 311 302 292 290 294 297 294 301 304 300 288 283 279 268 264 266 271 272 270 269 264 261 261 265 266 268 271 274 272 274 277 279 282 286
355 353 337 301 291 288 277 323 305 303 303 297 294 290 294 295 302 299 290 287 291 290 288 284 278 280 284 280 281 284 278 270 271 273 272 272 271 273 274 278 280 284 281
339 336 334 329 320 304 292 274 251 277 288 295 292 283 289 291 294 305 298 290 286 286 285 289 294 296 292 292 292 292 289 285 283 281 282 277 274 273 275 277 278 278 278
352 350 345 331 319 315 307 298 291 268 264 281 287 302 301 289 285 283 287 288 288 288 286 285 285 289 291 294 298 291 295 297 290 279 279 282 284 284 281 276 274 276 272
354 351 338 329 324 318 304 299 296 295 294 287 275 285 284 285 279 273 280 278 278 282 286 291 286 287 291 293 296 294 289 289 287 282 273 275 275 274 282 274 272 287 279
346 336 327 322 320 319 316 311 298 292 290 286 281 277 293 289 276 277 282 282 275 272 276 279 281 284 284 288 292 293 287 289 289 286 283 282 285 282 279 272 270 301 279
344 343 340 334 325 320 314 306 302 296 288 285 286 276 291 292 286 281 288 282 271 262 265 274 278 287 290 293 292 292 292 288 284 286 292 287 283 280 281 280 278 259 256
346 346 342 334 327 318 310 303 301 296 288 284 278 276 269 283 294 289 278 265 237 247 261 270 280 287 290 292 292 291 289 289 286 284 283 282 284 280 280 276 274 272 275
352 348 343 337 330 322 314 307 296 290 293 293 289 284 274 267 275 270 271 263 257 260 266 274 278 281 286 290 291 291 290 288 288 283 279 284 273 276 272 267 259 277 268
1 357 354 347 336 326 319 316 311 304 294 286 284 284 279 271 270 269 270 273 272 265 267 278 284 286 287 287 288 287 287 286 285 282 276 269 270 273 271 265 264 275 275
356 359 355 348 340 330 322 318 316 312 302 295 292 290 288 280 277 278 273 272 272 274 276 282 287 287 284 281 281 283 282 282 282 280 278 270 264 264 263 266 271 272 269
354 354 350 348 345 336 328 322 316 312 305 297 292 291 288 287 284 272 270 272 274 279 281 284 285 282 280 281 280 282 283 282 278 279 276 273 265 264 264 268 262 263 261
348 349 345 347 343 335 329 326 321 317 311 304 297 292 291 284 278 274 274 275 274 275 275 276 281 283 282 283 283 283 283 282 279 279 273 274 268 260 259 256 250 246 246